Location: City of Moscow
(46.7306°N, 116.9989°W)
Time: 17:12:51
(UTC+00:00)

Meteor 2-20 Rocket - Pass Details

Date: 11 December 2025
Orbit: 871 x 1024 km, 82.5° (Epoch: 15 January)

Event Time Altitude Azimuth Distance (km) Brightness Sun altitude
Exits shadow 13:46:53 - 346° (NNW) 3,477 7.1 -15.7°
Reaches altitude 10° 13:49:20 10° 341° (NNW) 2,546 6.4 -15.3°
Maximum altitude 13:54:51 50° 268° (W) 1,104 4.4 -14.4°
Drops below altitude 10° 14:00:18 10° 195° (SSW) 2,515 6.7 -13.5°
Sets 14:02:47 0° 190° (S) 3,455 7.5 -13.1°
